FW7875 Weather Reports


Display with metric or nautical units.
time (UTC)temp
F
wind
direction
speed
MPH
gust
MPH
rain 1hr
in
rain 24hr
in
rain mn
in
humidity
%
barometer
mb
20260903160055 71 215 12.0 19.0 0.00 0.00 0.00 38 1023.1
20260903155519 70 238 12.0 21.0 0.00 0.00 0.00 38 1023.2
20260903155017 71 236 12.0 22.0 0.00 0.00 0.00 38 1023.1
20260903154539 70 228 15.0 23.0 0.00 0.00 0.00 38 1023.2
20260903154019 70 183 16.0 23.0 0.00 0.00 0.00 37 1023.2
20260903153518 70 192 10.0 21.0 0.00 0.00 0.00 39 1023.1
20260903153041 69 207 14.0 21.0 0.00 0.00 0.00 40 1023.2
20260903152523 69 203 14.0 21.0 0.00 0.00 0.00 40 1023.2
20260903152021 69 211 12.0 16.0 0.00 0.00 0.00 40 1023.2
20260903151542 69 189 11.0 16.0 0.00 0.00 0.00 41 1023.2
20260903151018 69 188 8.0 15.0 0.00 0.00 0.00 42 1023.1
20260903150520 69 275 8.0 21.0 0.00 0.00 0.00 41 1023.2
20260903150042 68 212 8.0 21.0 0.00 0.00 0.00 43 1023.2
20260903145522 68 233 12.0 21.0 0.00 0.00 0.00 43 1023.2
20260903145019 68 218 6.0 15.0 0.00 0.00 0.00 45 1023.1
20260903144535 67 203 5.0 9.0 0.00 0.00 0.00 46 1023.2
20260903144020 66 169 4.0 9.0 0.00 0.00 0.00 49 1023.2
20260903143520 66 185 6.0 11.0 0.00 0.00 0.00 49 1023.2
20260903143042 65 122 7.0 11.0 0.00 0.00 0.00 50 1023.2
20260903142521 65 128 7.0 11.0 0.00 0.00 0.00 51 1023.2
20260903142019 64 130 8.0 11.0 0.00 0.00 0.00 51 1023.1
20260903141543 64 125 7.0 11.0 0.00 0.00 0.00 52 1023.0
20260903141022 63 134 6.0 10.0 0.00 0.00 0.00 53 1023.0
20260903140517 63 139 6.0 10.0 0.00 0.00 0.00 54 1023.2
20260903140042 62 156 6.0 8.0 0.00 0.00 0.00 55 1023.2
20260903135519 62 126 4.0 9.0 0.00 0.00 0.00 56 1023.1
20260903135022 61 120 5.0 9.0 0.00 0.00 0.00 57 1023.1
20260903134540 60 131 7.0 9.0 0.00 0.00 0.00 58 1023.0
20260903134020 59 146 4.0 6.0 0.00 0.00 0.00 61 1023.1
20260903133519 58 132 5.0 7.0 0.00 0.00 0.00 63 1022.9
20260903133042 56 112 5.0 7.0 0.00 0.00 0.00 65 1022.8
20260903132520 56 110 5.0 7.0 0.00 0.00 0.00 66 1022.8
20260903132020 55 107 6.0 8.0 0.00 0.00 0.00 67 1022.8
20260903131541 55 113 6.0 8.0 0.00 0.00 0.00 67 1022.7
20260903131020 54 109 6.0 8.0 0.00 0.00 0.00 68 1022.6
20260903130519 54 111 5.0 7.0 0.00 0.00 0.00 67 1022.6
20260903130041 54 113 5.0 8.0 0.00 0.00 0.00 68 1022.5
20260903125520 54 119 5.0 9.0 0.00 0.00 0.00 68 1022.4
20260903125022 54 131 6.0 10.0 0.00 0.00 0.00 69 1022.4
20260903124549 54 131 7.0 10.0 0.00 0.00 0.00 69 1022.4
20260903124020 53 117 6.0 10.0 0.00 0.00 0.00 70 1022.4
20260903123521 53 113 6.0 9.0 0.00 0.00 0.00 70 1022.3
20260903123040 53 112 5.0 8.0 0.00 0.00 0.00 71 1022.3
20260903122519 53 117 4.0 6.0 0.00 0.00 0.00 70 1022.3
20260903122021 53 105 4.0 6.0 0.00 0.00 0.00 70 1022.3
20260903121538 53 109 5.0 6.0 0.00 0.00 0.00 70 1022.3
20260903121019 54 117 5.0 6.0 0.00 0.00 0.00 70 1022.2
20260903120517 54 110 4.0 6.0 0.00 0.00 0.00 70 1022.1
20260903120053 53 113 3.0 5.0 0.00 0.00 0.00 71 1022.3
20260903115522 53 93 3.0 5.0 0.00 0.00 0.00 71 1022.2
20260903115021 54 78 4.0 6.0 0.00 0.00 0.00 70 1022.2
20260903114540 54 83 4.0 6.0 0.00 0.00 0.00 70 1022.2
20260903114020 54 86 4.0 6.0 0.00 0.00 0.00 69 1022.1
20260903113520 54 82 4.0 7.0 0.00 0.00 0.00 69 1022.1
20260903113041 54 84 4.0 7.0 0.00 0.00 0.00 70 1022.0
20260903112520 55 76 5.0 7.0 0.00 0.00 0.00 69 1022.1
20260903112020 55 77 5.0 7.0 0.00 0.00 0.00 68 1022.1
20260903111536 55 71 5.0 7.0 0.00 0.00 0.00 69 1022.0
20260903111017 56 86 5.0 7.0 0.00 0.00 0.00 68 1022.1
20260903110518 56 78 5.0 8.0 0.00 0.00 0.00 67 1021.9
20260903110038 56 70 5.0 9.0 0.00 0.00 0.00 67 1022.1
20260903105518 56 75 5.0 9.0 0.00 0.00 0.00 68 1022.0
20260903105021 56 63 6.0 9.0 0.00 0.00 0.00 67 1022.0
20260903104547 57 103 5.0 11.0 0.00 0.00 0.00 65 1022.0
20260903104019 57 65 5.0 11.0 0.00 0.00 0.00 65 1022.1
20260903103525 56 56 6.0 11.0 0.00 0.00 0.00 68 1021.9
20260903103040 56 65 4.0 8.0 0.00 0.00 0.00 69 1022.1
20260903102518 56 85 4.0 8.0 0.00 0.00 0.00 69 1022.0
20260903102019 56 56 2.0 3.0 0.00 0.00 0.00 67 1022.1
20260903101539 57 53 2.0 3.0 0.00 0.00 0.00 65 1022.1
20260903101020 57 53 3.0 3.0 0.00 0.00 0.00 64 1022.1
20260903100517 59 99 0.0 7.0 0.00 0.00 0.00 61 1022.1
20260903100038 60 115 2.0 8.0 0.00 0.00 0.00 59 1022.1
20260903095520 61 162 4.0 9.0 0.00 0.00 0.00 57 1021.9
20260903095021 61 184 5.0 9.0 0.00 0.00 0.00 57 1021.8
20260903094542 60 152 5.0 8.0 0.00 0.00 0.00 59 1021.9
20260903094020 60 158 2.0 5.0 0.00 0.00 0.00 61 1021.8
20260903093520 60 148 3.0 8.0 0.00 0.00 0.00 59 1021.7
20260903093051 61 139 3.0 11.0 0.00 0.00 0.00 58 1021.8
20260903092521 62 137 5.0 11.0 0.00 0.00 0.00 56 1021.8
20260903092020 62 165 6.0 10.0 0.00 0.00 0.00 56 1021.7
20260903091602 62 167 6.0 11.0 0.00 0.00 0.00 56 1021.6
20260903091016 63 160 7.0 11.0 0.00 0.00 0.00 56 1021.5
20260903090518 63 187 6.0 10.0 0.00 0.00 0.00 56 1021.6
20260903090038 63 176 7.0 10.0 0.00 0.00 0.00 56 1021.6
20260903085521 63 176 7.0 12.0 0.00 0.00 0.00 56 1021.6
20260903085020 63 177 6.0 12.0 0.00 0.00 0.00 56 1021.6
20260903084540 63 178 7.0 12.0 0.00 0.00 0.00 56 1021.6
20260903084019 63 188 6.0 13.0 0.00 0.00 0.00 56 1021.6
20260903083518 63 178 8.0 13.0 0.00 0.00 0.00 56 1021.6
20260903083039 63 167 9.0 13.0 0.00 0.00 0.00 56 1021.6
20260903082521 63 151 8.0 12.0 0.00 0.00 0.00 57 1021.6
20260903082018 63 150 7.0 13.0 0.00 0.00 0.00 57 1021.5
20260903081542 63 140 6.0 13.0 0.00 0.00 0.00 57 1021.5
20260903081020 62 158 5.0 11.0 0.00 0.00 0.00 57 1021.6
20260903080520 63 158 6.0 12.0 0.00 0.00 0.00 56 1021.6
20260903080040 64 162 8.0 12.0 0.00 0.00 0.00 55 1021.7
20260903075520 64 179 7.0 12.0 0.00 0.00 0.00 56 1021.6
20260903075021 64 169 8.0 12.0 0.00 0.00 0.00 56 1021.6
20260903074544 63 136 5.0 8.0 0.00 0.00 0.00 55 1021.7
20260903074023 64 185 3.0 10.0 0.00 0.00 0.00 55 1021.7
20260903073518 64 198 5.0 10.0 0.00 0.00 0.00 54 1021.6
20260903073041 64 209 5.0 11.0 0.00 0.00 0.00 54 1021.6
20260903072520 64 215 7.0 11.0 0.00 0.00 0.00 54 1021.6
20260903072020 64 179 6.0 10.0 0.00 0.00 0.00 54 1021.6
20260903071538 64 169 4.0 9.0 0.00 0.00 0.00 54 1021.5
20260903071020 64 188 6.0 11.0 0.00 0.00 0.00 53 1021.6
20260903070520 64 182 7.0 13.0 0.00 0.00 0.00 53 1021.4
20260903070040 64 177 8.0 13.0 0.00 0.00 0.00 53 1021.5
20260903065520 65 169 8.0 14.0 0.00 0.00 0.00 52 1021.4
20260903065017 65 188 9.0 14.0 0.00 0.00 0.00 52 1021.4
20260903064542 65 158 8.0 13.0 0.00 0.00 0.00 52 1021.4
20260903064021 65 176 8.0 15.0 0.00 0.00 0.00 51 1021.2
20260903063521 65 190 11.0 16.0 0.00 0.00 0.00 51 1021.3
20260903063035 65 175 10.0 16.0 0.00 0.00 0.00 51 1021.3
20260903062518 65 139 11.0 16.0 0.00 0.00 0.00 51 1021.3
20260903062020 65 163 11.0 16.0 0.00 0.00 0.00 51 1021.3
20260903061543 65 179 10.0 16.0 0.00 0.00 0.00 51 1021.3
20260903061025 65 175 10.0 16.0 0.00 0.00 0.00 51 1021.3
20260903060521 65 179 12.0 16.0 0.00 0.00 0.00 51 1021.1
20260903060040 65 152 8.0 14.0 0.00 0.00 0.00 51 1021.1
20260903055519 64 190 9.0 16.0 0.00 0.00 0.00 52 1021.2
20260903055018 64 167 9.0 16.0 0.00 0.00 0.00 52 1021.1
20260903054541 64 165 8.0 13.0 0.00 0.00 0.00 52 1021.2
20260903054020 64 163 7.0 11.0 0.00 0.00 0.00 53 1021.1
20260903053520 63 143 7.0 12.0 0.00 0.00 0.00 53 1021.1
20260903053041 63 166 7.0 13.0 0.00 0.00 0.00 53 1021.1
20260903052517 64 155 7.0 13.0 0.00 0.00 0.00 52 1021.2
20260903052020 64 155 9.0 13.0 0.00 0.00 0.00 52 1021.2
20260903051540 64 158 8.0 12.0 0.00 0.00 0.00 53 1021.2
20260903051021 63 146 8.0 14.0 0.00 0.00 0.00 53 1021.3
20260903050519 64 157 7.0 14.0 0.00 0.00 0.00 53 1021.4
20260903050037 63 167 9.0 14.0 0.00 0.00 0.00 53 1021.4
20260903045519 63 151 7.0 11.0 0.00 0.00 0.00 54 1021.4
20260903045021 63 158 8.0 12.0 0.00 0.00 0.00 54 1021.4
20260903044540 63 179 7.0 17.0 0.00 0.00 0.00 53 1021.4
20260903044018 64 176 9.0 17.0 0.00 0.00 0.00 53 1021.3
20260903043521 64 150 12.0 15.0 0.00 0.00 0.00 53 1021.2
20260903043040 64 159 9.0 14.0 0.00 0.00 0.00 53 1021.4
20260903042519 64 166 9.0 14.0 0.00 0.00 0.00 53 1021.3
20260903042020 64 152 8.0 14.0 0.00 0.00 0.00 53 1021.2
20260903041541 64 154 8.0 14.0 0.00 0.00 0.00 53 1021.2
20260903041019 64 164 9.0 14.0 0.00 0.00 0.00 54 1021.2
20260903040518 63 162 9.0 13.0 0.00 0.00 0.00 54 1021.3
20260903040043 63 163 7.0 16.0 0.00 0.00 0.00 55 1021.2
20260903035518 63 146 8.0 16.0 0.00 0.00 0.00 54 1021.3
20260903035018 63 150 9.0 14.0 0.00 0.00 0.00 55 1021.2
20260903034548 63 157 9.0 14.0 0.00 0.00 0.00 55 1021.4
20260903034021 63 160 7.0 12.0 0.00 0.00 0.00 56 1021.2
20260903033518 63 161 7.0 17.0 0.00 0.00 0.00 56 1021.2
20260903033044 64 155 9.0 17.0 0.00 0.00 0.00 55 1021.3
20260903032520 64 153 10.0 17.0 0.00 0.00 0.00 55 1021.2
20260903032024 64 176 11.0 17.0 0.00 0.00 0.00 55 1021.2
20260903031542 64 151 10.0 16.0 0.00 0.00 0.00 55 1021.3
20260903031023 64 150 10.0 18.0 0.00 0.00 0.00 55 1021.2
20260903030518 64 168 11.0 19.0 0.00 0.00 0.00 55 1021.2
20260903030039 64 174 13.0 19.0 0.00 0.00 0.00 54 1021.2
20260903025523 64 153 13.0 19.0 0.00 0.00 0.00 55 1021.2
20260903025019 64 153 13.0 18.0 0.00 0.00 0.00 55 1021.1
20260903024541 64 149 11.0 18.0 0.00 0.00 0.00 55 1021.0
20260903024019 64 165 13.0 20.0 0.00 0.00 0.00 56 1021.1
20260903023522 64 167 13.0 20.0 0.00 0.00 0.00 56 1021.2
20260903023039 64 165 12.0 17.0 0.00 0.00 0.00 56 1021.1
20260903022516 64 158 12.0 17.0 0.00 0.00 0.00 56 1021.1
20260903022018 64 164 10.0 16.0 0.00 0.00 0.00 56 1021.2
20260903021537 64 203 10.0 15.0 0.00 0.00 0.00 56 1021.3
20260903021020 64 165 10.0 15.0 0.00 0.00 0.00 56 1021.2
20260903020520 64 161 8.0 11.0 0.00 0.00 0.00 56 1021.2
20260903020040 64 153 7.0 11.0 0.00 0.00 0.00 56 1021.3
20260903015518 64 161 6.0 9.0 0.00 0.00 0.00 55 1021.4
20260903015020 64 146 4.0 7.0 0.00 0.00 0.00 55 1021.4
20260903014550 65 148 4.0 10.0 0.00 0.00 0.00 54 1021.5
20260903014022 65 162 5.0 12.0 0.00 0.00 0.00 53 1021.6
20260903013517 66 186 6.0 14.0 0.00 0.00 0.00 53 1021.5
20260903013041 66 153 9.0 15.0 0.00 0.00 0.00 53 1021.5
20260903012518 66 166 10.0 15.0 0.00 0.00 0.00 52 1021.4
20260903012018 67 140 11.0 18.0 0.00 0.00 0.00 51 1021.4
20260903011538 67 147 9.0 19.0 0.00 0.00 0.00 51 1021.6
20260903011024 67 139 13.0 21.0 0.00 0.00 0.00 50 1021.5
20260903010517 67 139 15.0 21.0 0.00 0.00 0.00 50 1021.4
20260903010035 67 142 14.0 20.0 0.00 0.00 0.00 50 1021.4
20260903005518 68 134 10.0 18.0 0.00 0.00 0.00 50 1021.6
20260903005019 67 129 10.0 18.0 0.00 0.00 0.00 51 1021.8
20260903004548 67 149 9.0 18.0 0.00 0.00 0.00 50 1021.8
20260903004020 67 126 11.0 17.0 0.00 0.00 0.00 50 1021.8
20260903003516 66 149 10.0 20.0 0.00 0.00 0.00 50 1021.7
20260903003043 66 153 14.0 28.0 0.00 0.00 0.00 50 1021.8
20260903002524 66 179 17.0 36.0 0.00 0.00 0.00 50 1021.7
20260903002021 66 167 21.0 36.0 0.00 0.00 0.00 51 1021.5
20260903001536 66 165 20.0 35.0 0.00 0.00 0.00 52 1021.6
20260903001017 67 161 20.0 40.0 0.00 0.00 0.00 52 1021.6
20260903000522 68 205 24.0 40.0 0.00 0.00 0.00 49 1021.5
20260903000040 70 236 22.0 31.0 0.00 0.00 0.00 46 1021.4
20260902235552 71 135 21.0 30.0 0.00 0.00 0.00 44 1021.2
20260902235019 72 167 18.0 26.0 0.00 0.00 0.00 43 1021.2
20260902234545 73 176 14.0 26.0 0.00 0.00 0.00 43 1021.1
20260902234021 73 155 18.0 26.0 0.00 0.00 0.00 42 1021.0
20260902233522 73 154 18.0 25.0 0.00 0.00 0.00 44 1021.1
20260902233035 74 188 14.0 23.0 0.00 0.00 0.00 44 1020.8
20260902232524 75 156 13.0 23.0 0.00 0.00 0.00 42 1020.9
20260902232018 76 152 16.0 23.0 0.00 0.00 0.00 42 1021.1
20260902231538 75 154 15.0 21.0 0.00 0.00 0.00 42 1020.9
20260902231020 74 155 12.0 21.0 0.00 0.00 0.00 44 1021.0
20260902230522 73 156 15.0 22.0 0.00 0.00 0.00 44 1021.0
20260902230040 73 148 14.0 22.0 0.00 0.00 0.00 43 1021.0
20260902225518 74 169 12.0 20.0 0.00 0.00 0.00 42 1021.1
20260902225018 74 188 14.0 20.0 0.00 0.00 0.00 41 1021.3
20260902224539 75 160 15.0 21.0 0.00 0.00 0.00 40 1021.3
20260902224020 77 169 13.0 21.0 0.00 0.00 0.00 36 1021.2
20260902223523 77 196 11.0 19.0 0.00 0.00 0.00 35 1021.3
20260902223044 77 206 12.0 26.0 0.00 0.00 0.00 35 1021.3
20260902222522 76 189 18.0 26.0 0.00 0.00 0.00 35 1021.4
20260902222025 76 155 13.0 20.0 0.00 0.00 0.00 37 1021.4
20260902221536 76 152 15.0 20.0 0.00 0.00 0.00 37 1021.5
20260902221020 76 182 14.0 21.0 0.00 0.00 0.00 36 1021.6
20260902220518 76 168 12.0 21.0 0.00 0.00 0.00 37 1021.9
20260902220038 76 214 10.0 17.0 0.00 0.00 0.00 37 1022.2
20260902215520 75 157 9.0 16.0 0.00 0.00 0.00 39 1022.0
20260902215019 74 156 8.0 19.0 0.00 0.00 0.00 40 1022.3
20260902214541 73 122 12.0 25.0 0.00 0.00 0.00 41 1022.6
20260902214021 72 160 16.0 30.0 0.00 0.00 0.00 41 1022.7
20260902213518 72 166 20.0 35.0 0.00 0.00 0.00 43 1022.7
20260902213040 72 161 22.0 35.0 0.00 0.00 0.00 41 1022.7
20260902212518 73 157 25.0 34.0 0.00 0.00 0.00 41 1022.7
20260902212020 74 170 26.0 34.0 0.00 0.00 0.00 40 1022.5
20260902211536 75 167 20.0 29.0 0.00 0.00 0.00 38 1022.5
20260902211020 76 243 14.0 22.0 0.00 0.00 0.00 36 1022.3
20260902210520 76 239 13.0 20.0 0.00 0.00 0.00 37 1022.3
20260902210044 76 234 15.0 22.0 0.00 0.00 0.00 35 1022.2
20260902205519 78 231 15.0 22.0 0.00 0.00 0.00 35 1022.2
20260902205018 77 245 11.0 20.0 0.00 0.00 0.00 39 1022.2
20260902204538 76 255 14.0 20.0 0.00 0.00 0.00 38 1022.3
20260902204019 77 290 11.0 22.0 0.00 0.00 0.00 39 1022.2
20260902203519 77 255 11.0 22.0 0.00 0.00 0.00 38 1022.3
20260902203048 77 240 16.0 21.0 0.00 0.00 0.00 38 1022.3
20260902202520 76 258 8.0 21.0 0.00 0.00 0.00 39 1022.2
20260902202018 76 268 12.0 21.0 0.00 0.00 0.00 38 1022.4
20260902201543 76 250 13.0 19.0 0.00 0.00 0.00 39 1022.6
20260902201020 75 269 10.0 19.0 0.00 0.00 0.00 40 1022.4
20260902200519 76 226 12.0 22.0 0.00 0.00 0.00 38 1022.6
20260902200051 76 235 15.0 22.0 0.00 0.00 0.00 38 1022.7
20260902195520 75 274 14.0 22.0 0.00 0.00 0.00 39 1022.7
20260902195019 75 264 15.0 22.0 0.00 0.00 0.00 39 1022.7
20260902194538 74 288 17.0 23.0 0.00 0.00 0.00 39 1022.8
20260902194017 74 250 14.0 23.0 0.00 0.00 0.00 38 1022.8
20260902193516 74 275 14.0 23.0 0.00 0.00 0.00 38 1022.9
20260902193038 74 232 14.0 21.0 0.00 0.00 0.00 38 1022.9
20260902192520 74 209 12.0 21.0 0.00 0.00 0.00 36 1023.0
20260902192023 74 282 13.0 21.0 0.00 0.00 0.00 37 1023.0
20260902191547 74 205 12.0 19.0 0.00 0.00 0.00 37 1023.2
20260902191021 74 236 11.0 22.0 0.00 0.00 0.00 37 1023.2
20260902190523 74 248 14.0 22.0 0.00 0.00 0.00 36 1023.2
20260902190037 74 251 12.0 24.0 0.00 0.00 0.00 35 1023.2
20260902185518 75 252 17.0 24.0 0.00 0.00 0.00 35 1023.2
20260902185017 75 238 13.0 25.0 0.00 0.00 0.00 35 1023.4
20260902184547 76 251 14.0 25.0 0.00 0.00 0.00 33 1023.4
20260902184018 76 215 9.0 18.0 0.00 0.00 0.00 35 1023.4
20260902183516 73 231 11.0 18.0 0.00 0.00 0.00 38 1023.4
20260902183039 73 243 11.0 16.0 0.00 0.00 0.00 38 1023.4
20260902182519 73 217 10.0 16.0 0.00 0.00 0.00 38 1023.6
20260902182018 73 229 7.0 19.0 0.00 0.00 0.00 38 1023.6
20260902181536 74 207 13.0 19.0 0.00 0.00 0.00 37 1023.8
20260902181022 74 184 8.0 17.0 0.00 0.00 0.00 37 1023.7
20260902180518 75 180 11.0 19.0 0.00 0.00 0.00 36 1023.8
20260902180040 75 181 13.0 19.0 0.00 0.00 0.00 36 1023.8
20260902175520 75 223 7.0 19.0 0.00 0.00 0.00 37 1023.8
20260902175018 76 229 12.0 19.0 0.00 0.00 0.00 36 1024.0
20260902174535 75 228 11.0 18.0 0.00 0.00 0.00 39 1024.0
20260902174018 74 215 12.0 18.0 0.00 0.00 0.00 39 1024.1
20260902173520 74 240 12.0 18.0 0.00 0.00 0.00 40 1024.1
20260902173040 73 221 10.0 17.0 0.00 0.00 0.00 41 1024.2
20260902172517 73 221 10.0 15.0 0.00 0.00 0.00 42 1024.3
20260902172018 72 217 10.0 18.0 0.00 0.00 0.00 42 1024.3
20260902171535 71 221 11.0 18.0 0.00 0.00 0.00 43 1024.3
20260902171018 72 244 10.0 16.0 0.00 0.00 0.00 41 1024.3
20260902170521 71 269 8.0 17.0 0.00 0.00 0.00 43 1024.3
20260902170044 71 259 11.0 17.0 0.00 0.00 0.00 43 1024.5
20260902165518 71 259 11.0 18.0 0.00 0.00 0.00 43 1024.5
20260902165021 71 262 12.0 18.0 0.00 0.00 0.00 42 1024.5
20260902164538 71 266 10.0 17.0 0.00 0.00 0.00 41 1024.3
20260902164018 71 274 11.0 16.0 0.00 0.00 0.00 41 1024.3
20260902163517 71 256 10.0 19.0 0.00 0.00 0.00 41 1024.5
20260902163043 72 239 10.0 19.0 0.00 0.00 0.00 39 1024.3
20260902162516 73 227 10.0 19.0 0.00 0.00 0.00 39 1024.3
20260902162020 71 216 10.0 18.0 0.00 0.00 0.00 39 1024.3
20260902161537 72 238 12.0 20.0 0.00 0.00 0.00 38 1024.3
20260902161023 73 255 13.0 20.0 0.00 0.00 0.00 38 1024.2
20260902160521 73 256 12.0 17.0 0.00 0.00 0.00 37 1024.3